SCP
0 0 0 0 0 0 0 0 0 0 0 0 0 0 1 1 1 2 3 3 3 2 1 1 1 1 1 1 1 1 1 1 1 1 1 1 1 0 0 1 1 1 1 1
0 0 0 0 0 0 0 0 0 0 0 0 0 0 1 1 1 2 3 4 3 2 1 1 1 1 1 1 1 1 1 1 1 2 1 1 1 0 0 0 0 0 0 0
0 0 0 0 0 0 0 0 0 0 0 0 0 0 1 1 1 2 2 3 3 3 2 1 1 1 1 1 1 1 1 1 1 2 2 1 1 1 0 0 0 0 0 0
0 0 0 0 0 0 0 0 0 0 0 0 0 0 0 1 1 1 2 3 3 3 2 2 1 1 1 1 1 1 1 1 1 1 2 2 1 1 1 1 1 1 0 0
0 0 0 0 0 0 0 0 0 0 0 0 0 0 0 1 1 1 1 2 3 3 3 2 2 1 1 1 1 1 1 1 1 1 2 2 2 1 1 1 1 1 1 1
0 0 0 0 0 0 0 0 0 0 0 0 0 0 0 0 0 1 1 2 3 4 3 3 2 2 2 2 2 2 1 1 1 2 2 2 2 2 2 2 2 1 1 1
0 0 0 0 0 0 1 1 1 0 0 0 0 0 0 0 0 0 1 1 2 4 4 3 3 2 3 3 2 2 2 1 1 2 2 2 2 2 2 2 2 1 1 1
0 0 0 0 0 1 1 1 0 0 0 0 0 0 0 0 0 0 0 1 2 3 4 4 3 3 3 4 3 2 2 1 1 2 2 2 2 2 2 2 2 2 1 1
0 0 0 0 0 1 1 0 0 0 0 0 0 0 0 0 0 0 0 1 1 3 4 4 3 3 3 4 4 3 2 2 1 1 2 2 2 2 2 2 2 2 2 2
0 0 0 0 0 1 1 0 0 0 0 0 0 0 0 0 0 0 0 0 1 2 3 4 4 3 3 3 3 3 2 2 1 1 1 2 2 1 1 2 2 2 2 1
0 0 0 0 0 0 0 0 0 0 0 0 0 0 0 1 1 0 0 0 1 1 2 4 4 3 3 3 3 3 2 2 1 1 1 1 1 1 1 1 2 2 2 1
0 0 0 0 0 0 0 0 0 0 0 0 0 0 0 0 0 0 0 0 1 1 2 2 2 2 2 2 2 2 2 2 1 1 1 1 1 1 1 1 1 2 2 1
0 0 0 0 0 0 0 0 0 0 0 0 0 0 0 0 0 0 0 0 1 1 1 1 1 1 1 2 2 2 2 2 1 1 1 1 1 1 1 1 1 1 2 2
0 0 0 0 0 0 0 0 0 0 0 0 0 0 0 0 0 0 0 1 1 1 1 1 1 1 1 1 2 2 2 2 1 1 2 2 1 1 1 1 1 1 2 2
0 0 0 0 0 0 0 0 0 0 0 0 0 0 0 0 0 0 0 0 1 1 1 1 1 1 1 1 1 1 1 1 1 1 2 2 2 1 1 1 1 1 1 1
0 0 0 0 0 0 0 0 0 0 0 0 0 0 0 0 0 0 0 0 0 0 0 1 1 1 1 1 0 0 0 0 0 1 2 2 2 2 1 1 1 0 0 0
0 0 0 0 0 0 0 0 0 0 0 0 0 0 0 0 0 0 0 0 0 0 0 0 0 0 0 0 0 0 0 0 1 1 1 2 2 2 1 1 1 1 0 0
0 0 0 0 0 0 0 0 0 0 0 0 0 0 0 0 0 0 0 0 0 0 0 0 0 0 0 0 0 0 0 0 1 1 1 1 1 2 2 1 1 1 1 1
0 0 0 0 0 0 0 0 0 0 0 0 0 0 0 0 0 0 0 0 0 0 0 0 0 0 0 0 0 0 0 0 0 0 0 0 1 1 1 2 1 1 1 1
0 0 0 0 0 0 0 0 0 0 0 0 0 0 0 0 0 0 0 0 0 0 0 0 0 0 0 0 0 0 0 0 0 0 0 0 0 0 1 2 2 2 1 1
0 0 0 0 0 0 0 0 0 0 0 0 0 0 0 0 0 0 0 0 0 0 0 0 0 0 0 0 0 0 0 0 0 0 0 0 0 0 1 2 3 3 2 2
0 0 0 0 0 0 0 0 0 0 0 0 0 0 0 0 0 0 0 0 0 0 0 0 0 0 0 0 0 0 0 0 0 0 0 0 0 0 1 1 3 3 3 3
0 0 0 0 0 0 0 0 0 0 0 0 0 0 0 0 0 0 0 0 0 0 0 0 0 0 0 0 0 0 0 0 0 0 0 0 0 0 1 2 2 3 3 3
0 0 0 0 0 0 0 0 0 0 0 0 0 0 0 0 0 0 0 0 0 0 0 0 0 0 0 0 0 0 0 0 0 0 0 0 0 0 1 1 2 3 3 3
0 0 0 0 0 0 0 0 0 0 0 0 0 0 0 0 0 0 0 0 0 0 0 0 0 0 0 0 0 0 0 0 0 0 0 0 0 0 0 1 2 2 2 2
0 0 0 0 0 0 0 0 0 0 0 0 0 0 0 0 0 0 0 0 0 0 0 0 0 0 0 0 0 0 0 0 0 0 0 0 0 0 0 0 1 2 2 2
Wind_Speed
6 6 5 5 5 6 6 6 4 2 4 5 6 5 7 6 5 4 4 5 5 5 5 6 5 4 4 4 5 5 5 4 4 2 2 1 1 1 1 1 1 2 2 2
5 6 5 4 4 6 7 7 4 2 3 5 6 6 6 7 7 5 5 4 4 5 5 5 5 4 3 4 4 5 5 4 4 3 2 2 2 1 2 1 1 1 1 1
6 3 2 4 4 7 8 6 5 4 3 7 6 7 7 8 8 6 5 5 4 5 5 5 4 4 3 3 3 3 4 4 4 4 2 2 1 1 1 1 0 0 1 2
5 4 3 4 5 6 6 4 5 6 5 5 7 5 5 8 8 7 5 5 5 5 5 5 4 3 2 3 3 3 3 4 4 4 3 3 2 2 2 2 1 1 1 1
5 3 4 5 5 5 5 6 7 8 8 8 8 6 4 8 8 7 6 5 5 6 6 5 4 3 2 2 2 2 3 3 3 3 2 2 2 2 1 2 2 2 1 1
6 4 3 4 5 5 5 7 9 9 7 8 9 7 3 5 7 7 6 5 5 6 6 5 5 4 3 3 2 2 3 3 3 3 3 3 2 2 2 2 2 1 1 1
7 6 4 2 3 3 5 4 4 5 6 6 5 5 1 4 6 7 6 6 5 6 5 5 5 4 3 3 2 1 2 3 3 3 3 3 2 2 2 2 2 2 1 1
6 5 5 3 3 3 5 5 5 4 4 3 3 2 4 6 6 6 6 6 5 5 5 5 5 4 4 3 2 1 2 2 2 3 3 3 2 2 1 2 2 2 1 2
4 3 3 3 4 4 4 5 6 7 8 6 3 4 5 5 5 5 4 6 5 5 5 5 5 4 4 3 2 2 2 2 2 2 2 2 2 2 2 2 2 1 1 1
7 5 5 5 5 6 6 5 4 4 4 5 4 3 3 6 4 4 4 4 4 4 5 6 5 4 4 3 3 2 2 2 2 2 1 2 2 2 2 2 2 2 1 1
8 7 4 5 6 6 6 6 5 5 5 4 3 1 3 5 4 4 3 3 3 4 5 4 4 4 4 3 3 3 2 3 2 2 1 1 1 2 1 1 1 2 2 1
4 6 6 6 4 3 5 5 5 4 5 5 4 0 4 5 5 3 3 2 3 3 3 4 4 4 3 4 3 3 3 2 2 2 2 1 1 1 1 0 0 1 2 1
3 5 5 4 5 5 6 6 5 6 6 5 5 1 2 4 3 2 2 1 1 2 3 3 3 3 3 3 3 3 3 3 2 2 2 1 2 1 0 0 0 0 1 1
3 7 7 6 4 4 7 7 7 7 6 6 6 4 1 1 2 2 3 2 2 2 2 2 3 2 2 2 2 3 3 3 3 2 2 2 1 1 0 1 0 1 1 1
4 8 8 9 9 8 9 9 9 9 9 8 7 5 2 1 1 1 1 2 2 1 1 1 1 2 2 2 3 3 3 3 3 3 3 2 1 2 1 1 0 1 0 0
5 7 9 10 9 10 11 10 10 10 9 8 7 5 3 3 2 3 2 1 0 0 0 1 1 1 1 1 2 2 3 3 3 3 3 3 2 1 1 1 0 0 0 0
6 8 8 8 7 9 10 7 6 6 5 5 6 4 3 3 3 2 1 0 0 0 0 0 1 1 1 1 1 1 1 2 3 3 3 2 2 2 1 1 1 0 0 0
8 8 5 6 6 8 3 1 3 5 4 3 4 4 4 4 4 3 1 1 0 0 0 1 1 1 1 1 2 1 1 1 2 3 3 2 2 2 1 1 1 1 0 0
7 7 5 5 7 8 4 1 2 4 4 2 2 4 5 5 4 2 4 2 1 0 0 1 1 0 1 1 2 2 1 1 2 2 3 3 2 2 2 1 1 1 0 0
6 5 5 5 6 6 1 2 3 3 3 3 2 3 3 4 3 3 3 3 2 1 1 1 0 1 1 1 2 2 2 1 1 2 2 2 2 2 2 1 1 0 0 1
5 5 6 6 7 4 2 3 3 3 2 3 3 3 3 3 3 3 2 2 2 1 1 1 0 0 0 1 2 1 2 2 2 2 2 1 1 2 1 1 1 0 0 0
4 4 5 5 6 3 2 2 2 4 4 4 3 3 3 4 4 3 2 1 1 1 1 1 0 0 0 1 1 1 1 1 2 2 2 2 2 1 2 2 1 0 0 1
4 3 2 3 2 2 3 3 4 5 6 5 5 4 4 4 4 4 3 2 1 1 1 1 1 1 1 1 2 1 0 2 2 2 2 1 2 1 1 2 2 1 1 1
4 3 3 4 2 3 3 4 5 4 5 6 6 5 4 3 3 3 3 2 2 1 2 1 1 1 1 1 1 1 1 1 2 2 2 1 2 2 1 1 1 1 1 1
5 5 4 5 4 3 3 4 5 5 5 7 6 5 5 4 4 3 3 2 2 2 2 1 2 2 2 1 2 2 2 2 2 2 2 1 1 1 1 1 1 1 2 2
5 4 5 4 4 4 5 5 6 6 6 6 6 6 5 4 4 3 2 2 2 2 2 1 1 1 2 1 2 2 2 2 2 2 2 1 1 1 1 1 1 1 2 3
Wind_Direction
215 227 235 236 242 282 289 278 262 227 189 225 233 222 185 180 184 180 163 153 155 165 147 142 142 140 144 147 147 141 145 150 133 126 120 124 125 107 85 83 68 60 58 55
238 235 243 253 264 272 272 271 263 242 201 239 241 237 189 181 184 183 169 157 157 149 133 133 145 143 152 154 151 153 152 151 139 137 147 147 143 145 125 101 66 75 81 74
243 253 242 247 245 260 266 274 281 282 241 241 252 244 203 181 173 170 169 155 146 128 132 125 130 138 143 140 149 153 151 140 138 135 130 130 128 126 110 126 129 80 66 62
251 241 235 243 255 266 272 295 293 278 264 252 236 253 196 181 174 172 167 156 143 136 133 126 117 111 137 145 149 164 158 146 142 141 146 156 147 155 165 166 155 135 114 101
252 243 248 251 264 276 291 306 281 267 263 269 252 255 203 176 177 174 163 156 145 137 131 128 125 117 101 116 145 159 149 141 138 139 165 175 161 173 163 147 143 160 161 128
251 244 245 259 272 271 275 277 263 248 247 253 243 242 217 174 165 157 149 146 142 128 124 127 122 115 100 85 81 133 145 143 149 162 172 169 179 173 155 153 159 170 154 160
239 216 213 229 255 244 258 276 265 227 219 231 224 226 158 120 134 141 147 142 135 132 134 132 122 121 118 114 106 113 132 151 167 171 167 165 183 175 162 156 169 174 168 163
245 223 193 203 251 261 250 255 272 283 273 279 244 204 120 108 111 121 135 140 140 143 144 139 135 140 143 138 137 142 144 149 168 172 178 171 166 165 162 174 169 177 186 175
280 231 179 201 228 259 262 254 276 289 288 276 232 145 138 130 121 122 129 142 150 149 144 141 143 149 148 150 159 167 159 160 159 171 172 163 171 154 176 182 167 158 145 137
289 284 221 210 223 221 249 284 283 272 287 275 251 221 157 142 136 136 139 134 139 134 139 140 145 150 154 165 175 175 167 168 160 138 170 167 163 165 171 176 158 150 159 151
278 267 243 216 222 238 228 241 260 274 265 282 289 358 83 131 146 150 142 135 132 136 138 144 149 151 155 159 168 171 175 170 164 154 141 148 163 161 166 176 162 149 147 152
264 274 256 237 217 241 255 250 254 266 284 286 284 321 78 100 111 125 129 130 138 139 143 144 144 140 153 167 175 177 171 163 168 158 144 135 142 117 136 140 120 129 138 157
301 263 257 228 191 196 242 247 264 277 274 274 278 249 96 72 63 78 78 71 105 133 146 146 143 157 172 181 183 177 167 158 159 142 135 127 99 99 144 111 28 93 124 143
284 258 257 266 274 251 253 254 255 261 265 273 275 286 309 28 33 44 61 65 70 75 112 139 149 160 177 180 178 169 159 150 154 149 153 144 134 120 80 87 87 104 101 143
260 264 266 273 281 273 261 256 255 256 264 270 282 293 319 25 21 16 51 78 70 65 68 103 153 175 184 187 192 171 158 158 162 166 161 146 131 118 94 66 20 75 96 243
248 268 274 270 266 270 266 253 248 252 261 272 286 298 4 4 13 4 27 81 108 286 357 136 185 173 200 198 185 164 166 167 167 160 146 138 133 127 122 112 71 330 210 230
245 258 271 271 269 269 256 250 244 258 268 275 283 307 349 348 354 329 324 249 230 281 308 266 258 230 238 221 161 126 151 153 152 140 132 134 136 142 142 127 100 277 287 14
251 257 260 268 273 254 246 291 283 267 274 292 310 345 359 344 329 319 347 90 288 359 323 265 257 253 235 135 115 114 120 149 145 141 147 152 155 154 156 153 162 202 196 76
246 246 253 256 264 262 265 294 311 280 275 325 330 342 347 346 332 332 30 17 285 164 358 306 305 325 75 92 119 126 117 138 151 142 144 152 160 162 170 180 186 147 27 294
240 244 246 250 259 266 290 21 351 297 261 27 1 338 337 336 314 322 356 354 356 47 34 323 342 70 97 105 121 132 148 148 149 136 136 145 159 169 172 159 149 138 174 242
225 234 237 249 257 262 8 9 326 268 311 359 345 343 333 308 302 317 337 344 351 29 21 349 30 102 160 137 136 170 180 180 149 125 124 130 143 158 154 131 123 135 182 266
235 233 232 238 248 249 33 8 337 340 354 351 348 343 324 318 334 346 351 352 5 355 351 354 77 189 119 111 129 209 218 150 122 125 133 147 133 156 155 135 143 151 245 256
236 247 265 247 255 351 14 351 352 352 342 346 341 338 333 326 327 332 333 332 335 327 311 303 250 217 171 163 180 202 165 114 122 135 145 156 141 121 142 155 162 172 209 226
287 279 261 271 287 327 352 349 354 353 340 335 336 335 327 322 322 320 316 315 302 291 284 269 223 203 235 209 155 125 121 128 148 163 167 163 139 126 115 153 160 170 187 204
302 305 280 271 298 315 350 354 351 342 334 328 329 329 334 327 315 307 302 302 297 287 281 256 227 219 225 207 154 148 151 165 182 183 176 162 140 143 170 163 189 186 191 184
281 287 287 290 316 317 327 336 339 332 329 329 330 330 327 319 306 301 293 292 286 276 265 245 239 233 226 203 167 162 166 177 184 189 184 167 157 173 187 181 217 234 206 187